EW4388 Weather Reports


Display with metric or nautical units.
time (UTC)temp
F
wind
direction
speed
MPH
gust
MPH
rain 1hr
in
rain 24hr
in
rain mn
in
humidity
%
barometer
mb
20260507144503 72 152 4.0 10.0 0.00 0.31 0.31 36 1014.4
20260507143002 72 215 4.0 9.0 0.00 0.31 0.31 40 1014.4
20260507141605 72 131 3.0 9.0 0.00 0.31 0.31 44 1014.5
20260507140125 71 105 4.0 12.0 0.00 0.31 0.31 45 1014.5
20260507134559 72 163 6.0 11.0 0.00 0.31 0.31 45 1014.6
20260507133059 72 188 5.0 11.0 0.00 0.31 0.31 45 1014.6
20260507131614 72 153 4.0 9.0 0.00 0.31 0.31 45 1014.7
20260507130110 72 118 5.0 10.0 0.00 0.31 0.31 49 1015.0
20260507124606 72 207 4.0 10.0 0.00 0.31 0.31 53 1015.0
20260507123100 73 187 5.0 12.0 0.00 0.31 0.31 49 1014.9
20260507121551 72 101 3.0 11.0 0.00 0.31 0.31 54 1014.9
20260507120050 72 262 3.0 9.0 0.00 0.31 0.31 54 1015.0
20260507114550 72 116 6.0 17.0 0.00 0.31 0.31 55 1014.8
20260507113048 72 17 2.0 14.0 0.00 0.31 0.31 59 1014.9
20260507111547 72 232 4.0 18.0 0.00 0.31 0.31 59 1014.8
20260507110042 71 82 5.0 18.0 0.00 0.31 0.31 64 1015.2
20260507104541 70 139 7.0 19.0 0.00 0.31 0.31 65 1014.9
20260507103039 70 152 7.0 19.0 0.00 0.31 0.31 65 1015.0
20260507101545 70 65 5.0 22.0 0.00 0.31 0.31 67 1015.2
20260507100037 69 240 6.0 20.0 0.00 0.31 0.31 67 1015.4
20260507094531 68 153 9.0 18.0 0.00 0.31 0.31 70 1015.3
20260507093037 67 206 4.0 17.0 0.00 0.31 0.31 73 1015.2
20260507091527 67 146 6.0 19.0 0.00 0.31 0.31 73 1015.0
20260507090030 66 193 6.0 14.0 0.00 0.31 0.31 76 1014.8
20260507084522 66 139 6.0 19.0 0.00 0.31 0.31 80 1014.5
20260507083034 65 133 8.0 17.0 0.00 0.31 0.31 81 1014.6
20260507081516 65 153 4.0 12.0 0.00 0.31 0.31 82 1014.8
20260507080013 64 163 2.0 10.0 0.00 0.31 0.31 82 1014.6
20260507074525 63 115 1.0 7.0 0.00 0.31 0.31 82 1014.9
20260507073012 62 101 2.0 10.0 0.00 0.31 0.31 82 1015.3
20260507071510 62 143 3.0 10.0 0.00 0.31 0.31 82 1015.4
20260507070012 61 131 3.0 13.0 0.00 0.31 0.31 82 1015.1
20260507064510 60 127 3.0 10.0 0.02 0.31 0.31 81 1015.3
20260507063007 60 217 4.0 15.0 0.02 0.31 0.31 79 1015.3
20260507061507 59 131 2.0 10.0 0.04 0.31 0.31 78 1015.9
20260507060005 59 101 2.0 7.0 0.05 0.31 0.31 78 1016.5
20260507054503 60 172 3.0 7.0 0.04 0.30 0.30 78 1016.7
20260507053004 60 144 0.0 4.0 0.04 0.28 0.28 78 1016.7
20260507051502 60 131 0.0 5.0 0.03 0.28 0.28 78 1016.7
20260507050003 60 146 0.0 3.0 0.03 0.27 0.27 78 1016.8
20260507044621 60 8 0.0 1.0 0.06 0.26 0.26 78 1016.6
20260507043059 60 8 0.0 2.0 0.07 0.25 0.25 78 1016.1
20260507041602 60 129 0.0 1.0 0.06 0.24 0.24 78 1016.0
20260507040105 60 146 0.0 4.0 0.06 0.24 0.24 78 1016.3
20260507034559 60 147 2.0 9.0 0.03 0.20 0.20 78 1016.3
20260507033053 60 224 3.0 8.0 0.02 0.18 0.18 78 1016.4
20260507031555 60 231 1.0 4.0 0.05 0.18 0.18 78 1016.2
20260507030053 60 224 1.0 3.0 0.06 0.17 0.17 78 1015.9
20260507024547 60 226 0.0 1.0 0.08 0.17 0.17 78 1015.4
20260507023048 60 226 0.0 2.0 0.07 0.16 0.16 78 1015.1
20260507021546 60 115 0.0 4.0 0.06 0.13 0.13 78 1014.7
20260507020051 60 127 1.0 6.0 0.06 0.12 0.12 78 1014.8
20260507014547 60 136 2.0 6.0 0.04 0.09 0.09 78 1015.3
20260507013041 60 143 1.0 5.0 0.06 0.09 0.09 78 1015.5
20260507011543 61 143 0.0 2.0 0.06 0.07 0.07 79 1015.2
20260507010038 61 143 0.0 1.0 0.06 0.06 0.06 79 1015.2
20260507004537 61 143 0.0 4.0 0.06 0.06 0.06 79 1015.3
20260507003034 61 232 0.0 2.0 0.03 0.03 0.03 80 1015.1
20260507001546 62 234 0.0 2.0 0.02 0.02 0.02 81 1015.1
20260507000030 62 234 0.0 2.0 0.01 0.01 0.01 81 1014.8
20260506234540 62 233 0.0 0.0 0.00 0.00 0.00 82 1014.6
20260506233028 62 221 0.0 5.0 0.00 0.00 0.00 82 1014.8
20260506231528 63 214 1.0 4.0 0.00 0.00 0.00 82 1014.6
20260506230025 63 156 0.0 3.0 0.00 0.00 0.00 82 1014.7
20260506224528 63 234 0.0 2.0 0.00 0.00 0.00 82 1014.7
20260506223022 63 180 2.0 6.0 0.00 0.00 0.00 81 1014.9
20260506221522 63 134 2.0 6.0 0.00 0.00 0.00 81 1014.9
20260506220018 63 131 3.0 9.0 0.00 0.00 0.00 81 1015.0
20260506214517 64 122 3.0 10.0 0.00 0.00 0.00 81 1015.0
20260506213021 63 221 4.0 12.0 0.00 0.00 0.00 81 1015.2
20260506211518 63 233 4.0 11.0 0.00 0.00 0.00 81 1015.1
20260506210018 63 91 4.0 9.0 0.00 0.00 0.00 81 1014.9
20260506204514 63 144 4.0 7.0 0.00 0.00 0.00 81 1014.6
20260506203014 63 141 3.0 8.0 0.00 0.00 0.00 81 1014.6
20260506201520 63 174 3.0 8.0 0.00 0.00 0.00 80 1014.6
20260506200017 63 210 2.0 7.0 0.00 0.00 0.00 80 1014.4
20260506194512 63 169 2.0 8.0 0.00 0.00 0.00 79 1014.3
20260506193012 63 218 4.0 9.0 0.00 0.00 0.00 79 1014.2
20260506191515 64 143 3.0 12.0 0.00 0.00 0.00 79 1014.2
20260506190010 64 233 4.0 12.0 0.00 0.00 0.00 78 1013.9
20260506184510 64 116 4.0 15.0 0.00 0.00 0.00 78 1013.9
20260506183012 64 145 6.0 13.0 0.00 0.00 0.00 78 1013.9
20260506181610 64 161 6.0 14.0 0.00 0.00 0.00 78 1014.0
20260506180007 65 115 4.0 11.0 0.00 0.00 0.00 78 1014.1
20260506174513 65 142 6.0 14.0 0.00 0.00 0.00 78 1014.0
20260506173007 65 157 6.0 11.0 0.00 0.00 0.00 77 1014.0
20260506171513 66 195 5.0 9.0 0.00 0.00 0.00 76 1013.9
20260506170005 66 128 3.0 10.0 0.00 0.00 0.00 74 1013.7
20260506164505 67 124 4.0 11.0 0.00 0.00 0.00 73 1013.7
20260506163005 67 148 5.0 14.0 0.00 0.00 0.00 73 1013.6
20260506161504 67 232 5.0 16.0 0.00 0.00 0.00 73 1013.7
20260506160003 68 153 6.0 13.0 0.00 0.00 0.00 70 1013.7
20260506154505 69 127 5.0 18.0 0.00 0.00 0.00 70 1013.7
20260506153134 70 137 4.0 14.0 0.00 0.00 0.00 69 1013.6
20260506151558 70 184 6.0 13.0 0.00 0.00 0.00 68 1013.6
20260506150157 70 138 4.0 11.0 0.00 0.00 0.00 68 1013.7